#timestamp,LO_Frequency,Hit,StdDev 
1644843615.8,286046991.0,N
1644843635.6,286046990.6,N
1644843655.4,286046990.9,N
1644843675.3,286046994.6,N
1644843695.1,286046997.5,N
1644843715.9,286046998.7,N
1644843735.7,286046998.3,N
1644843755.5,286046997.2,N
1644843775.4,286046999.4,N
1644843795.2,286046996.7,N
1644843815.0,286046996.5,N
1644843816.0,286046996.5,N
1644843835.8,286046998.3,N
1644843855.6,286047001.1,N
1644843875.5,286047000.3,N
1644843895.3,286047001.0,N
1644843915.1,286047005.6,N
1644843935.9,286047005.5,N
1644843955.7,286047005.4,N
1644843975.5,286047003.6,N
1644843995.4,286047004.7,N
1644844015.2,286047003.5,N
1644844035.1,286047003.3,N
1644844036.0,286047003.3,N
1644844055.8,286047001.3,N
1644844075.6,286047000.6,N
1644844095.5,286047002.4,N
1644844115.3,286047001.8,N
1644844135.2,286047002.4,N
1644844155.9,286047001.9,N
1644844175.7,286047004.2,N
1644844195.6,286047003.1,N
1644844215.4,286047002.9,N
1644844235.2,286047002.8,N
1644844255.1,286046997.1,N
1644844256.0,286046997.1,N
1644844275.8,286046996.9,N
1644844295.7,286046997.8,N
1644844315.5,286046999.4,N
1644844335.3,286046996.8,N
1644844355.2,286046996.1,N
1644844375.0,286046996.4,N
1644844375.9,286046996.4,N
1644844395.8,286046993.7,N
1644844415.6,286046995.2,N
1644844435.4,286046997.6,N
1644844455.3,286046998.7,N
1644844475.1,286047001.0,N
1644844495.8,286047001.0,N
1644844515.7,286046999.4,N
1644844535.5,286047003.2,N
1644844555.4,286047005.7,N
1644844575.2,286047004.7,N
1644844595.0,286047012.7,Y
1644844595.9,286047012.7,P
1644844615.8,286047013.0,N
1644844635.6,286047014.3,N
1644844655.5,286047015.1,N
1644844675.3,286047013.1,N
1644844695.1,286047011.4,N
1644844715.9,286047009.3,N
1644844735.7,286047009.9,N
1644844755.5,286047009.3,N
1644844775.4,286047008.8,N
1644844795.2,286047013.5,Y
1644844815.1,286046999.8,P
1644844816.0,286046999.8,N
1644844835.8,286047000.6,N
1644844855.6,286046999.9,N
1644844875.5,286046999.8,N
1644844895.3,286047000.7,N
1644844915.1,286046997.7,N
1644844935.9,286046997.7,N
1644844955.7,286046997.6,N
1644844975.6,286046999.2,N
1644844995.4,286046998.6,N
1644845015.2,286046998.2,N
1644845035.1,286046995.1,N
1644845036.0,286046995.1,N
1644845055.8,286046994.7,N
1644845075.6,286046991.8,N
1644845095.5,286046993.7,N
1644845115.3,286046998.3,N
1644845135.2,286047000.4,N
1644845155.9,286046997.2,N
1644845175.7,286046995.8,N
1644845195.6,286046992.0,N
1644845215.4,286046990.2,N
1644845235.2,286046990.2,N
1644845255.1,286046992.1,N
1644845256.0,286046992.1,N
1644845275.8,286046992.6,N
1644845295.7,286046990.6,N
1644845315.5,286046991.3,N
1644845335.3,286046989.9,N
1644845355.2,286046987.0,Y
1644845375.0,286046993.2,P
1644845375.9,286046993.2,P
1644845395.7,286046990.1,P
1644845415.6,286046991.5,Y
1644845435.4,286046995.9,P
1644845455.3,286046993.4,P
1644845475.1,286046993.0,P
1644845495.8,286046994.2,Y
1644845515.7,286046996.5,P
1644845535.5,286046997.0,N
1644845555.4,286046998.4,N
1644845575.2,286046999.7,N
1644845595.0,286046998.3,N
1644845595.9,286046998.3,N
1644845615.8,286046999.1,N
1644845635.6,286047000.3,N
1644845655.4,286046997.1,N
1644845675.3,286046999.1,N
1644845695.1,286046998.1,N
1644845715.9,286046996.7,N
1644845735.7,286046996.6,N
1644845755.5,286046998.4,N
1644845775.4,286046997.2,N
1644845795.2,286046997.4,N
1644845815.0,286046996.8,N
1644845815.9,286046996.8,N
1644845835.8,286046997.3,N
1644845855.6,286046997.3,N
1644845875.5,286046998.0,N
1644845895.3,286046998.0,N
1644845915.1,286046995.7,Y
1644845935.9,286046997.0,P
1644845955.7,286046997.5,P
1644845975.5,286046998.2,P
1644845995.4,286046997.7,Y
1644846015.2,286046998.3,P
1644846035.1,286046999.2,N
1644846036.0,286046999.2,N
1644846055.8,286046998.3,N
1644846075.6,286046998.8,N
1644846095.5,286046999.4,N
1644846115.3,286046997.7,Y
1644846135.2,286046997.2,P
1644846155.9,286046996.6,P
1644846175.7,286046997.4,P
1644846195.6,286046994.9,Y
1644846215.4,286047002.3,P
1644846235.2,286047002.4,N
1644846255.1,286047003.2,N
1644846256.0,286047003.2,N
1644846275.8,286047002.6,N
1644846295.7,286046999.9,N
1644846315.5,286046999.7,N
1644846335.3,286047001.1,N
1644846355.2,286046998.5,N
1644846375.0,286046998.8,N
1644846375.9,286046998.8,N
1644846395.7,286046997.4,N
1644846415.6,286046995.0,N
1644846435.4,286046999.1,N
1644846455.3,286046996.6,N
1644846475.1,286046996.9,N
1644846476.0,286046996.9,N
1644846495.8,286046997.9,N
1644846515.7,286046999.6,N
1644846535.5,286046995.7,N
1644846555.3,286046996.8,N
1644846575.2,286046997.5,N
1644846595.0,286046997.9,N
1644846595.9,286046997.9,N
1644846615.8,286046996.5,N
1644846635.6,286047000.4,N
1644846655.4,286046998.7,N
1644846675.3,286046999.6,N
1644846695.1,286047001.0,N
1644846715.8,286046998.5,N
1644846735.7,286047001.0,N
1644846755.5,286046998.3,N
1644846775.4,286047002.7,N
1644846795.2,286047000.2,N
1644846815.0,286047001.2,N
1644846815.9,286047001.2,N
1644846835.8,286046999.8,N
1644846855.6,286046997.0,N
1644846875.4,286046995.4,N
1644846895.3,286046995.4,N
1644846915.1,286046995.4,N
1644846935.9,286046993.4,Y
1644846955.7,286046995.2,P
1644846975.5,286046996.1,N
1644846995.4,286046994.5,P
1644847015.2,286046995.8,N
1644847035.1,286046996.0,Y
1644847036.0,286046996.0,P
1644847055.8,286046999.6,P
1644847075.6,286046996.6,N
1644847095.5,286046999.6,N
1644847115.3,286046999.4,N
1644847135.1,286046999.5,N
1644847155.9,286046998.1,N
1644847175.7,286046996.5,N
1644847195.6,286046996.8,N
